Location: Dziadowski
(50.3833°N, 20.0333°E)
Time: 03:41:03
(UTC+00:00)

BREEZE-M DEB (TANK) - Visible Passes

Search period start: 21 April 2026 00:00
Search period end: 01 May 2026 00:00
Orbit: 288 x 14629 km, 49.6° (Epoch: 19 April)

Date Brightness Start Highest point End Pass type
(mag) Time Alt. Az. Time Alt. Az. Time Alt. Az.
21 Apr 6.9 17:22:56 10° WNW 18:41:38 43° WSW 18:58:35 10° S visible
23 Apr 7.4 19:28:55 10° NW 20:07:58 20° WNW 20:23:37 10° WSW visible
24 Apr 7.1 17:24:32 10° NW 18:39:38 39° W 18:57:13 10° SSW visible
26 Apr 7.7 19:30:56 10° NW 20:04:39 17° WNW 20:20:09 10° WSW visible
27 Apr 7.2 17:25:37 10° NW 18:37:05 35° W 18:55:22 10° SSW visible
29 Apr 7.9 19:33:17 10° NW 20:00:46 15° WNW 20:15:28 10° W visible
30 Apr 10.6 03:11:38 10° ENE 03:33:22 11° ENE 03:53:58 10° NE visible
30 Apr 7.3 17:26:13 10° NW 18:33:58 32° W 18:53:01 10° SSW visible
